Regional Weather Roundup
Issued by NWS

Home | Current Version | Previous Version | Text Only | Print | Product List | Glossary Off
Versions: 1 2 3 4 5 6 7 8 9 10 11 12 13 14 15 16 17 18 19 20 21 22 23 24 25 26 27 28 29 30 31 32 33 34 35 36 37 38 39 40 41 42 43 44 45 46 47 48 49 50

000
ASUS43 KOAX 222302
RWRNE

WEATHER ROUNDUP FOR NEBRASKA
NATIONAL WEATHER SERVICE OMAHA NE
600 PM CDT TUE APR 22 2014

NOTES: SATELLITE DATA IS BEING USED TO AUGMENT CLOUD COVER ABOVE
       12000 FEET.
       "FAIR" INDICATES FEW OR NO CLOUDS BELOW 12,000 FEET WITH NO
       SIGNIFICANT WEATHER AND/OR OBSTRUCTIONS TO VISIBILITY.

  * THESE STATIONS DO NOT REPORT WEATHER SUCH AS RAIN...SNOW OR FOG.

NEZ001>004-019>022-054>056-230000-
NEBRASKA PANHANDLE

CITY           SKY/WX    TMP DP  RH WIND       PRES   REMARKS
SCOTTSBLUFF    PTSUNNY   82  33  17 SW17G26   29.66F
ALLIANCE       PTSUNNY   77  37  23 S22G30    29.68F
CHADRON        PTSUNNY   75  42  30 SW15      29.64F
KIMBALL        SUNNY     78  27  15 S14G20    29.72F
SIDNEY         MOSUNNY   81  33  17 S20G25    29.72F
$$

NEZ057>060-069>072-079>082-230000-
SOUTHWEST NEBRASKA

CITY           SKY/WX    TMP DP  RH WIND       PRES   REMARKS
NORTH PLATTE   SUNNY     76  30  18 S21G35    29.78F
IMPERIAL       SUNNY     80  43  26 S32G39    29.73F
LEXINGTON      PTSUNNY   75  35  23 S28G36    29.83F
MCCOOK         SUNNY     77  38  24 SE23G37   29.80F
OGALLALA       PTSUNNY   80  39  23 S18G33    29.73F
$$

NEZ005>010-023>029-035>040-094-230000-
NORTH CENTRAL NEBRASKA

CITY           SKY/WX    TMP DP  RH WIND       PRES   REMARKS
VALENTINE      PTSUNNY   77  34  21 S30G39    29.74F
AINSWORTH      MOSUNNY   75  34  22 S28G37    29.78F
BROKEN BOW     MOSUNNY   71  33  24 S30G38    29.84F
O`NEILL        MOSUNNY   70  24  17 S22G31    29.87F
ORD            MOSUNNY   71  31  22 S22G31    29.87F
THEDFORD       SUNNY     76  32  20 S24G35    29.78F
$$

NEZ041-046>049-061>064-073>077-083>087-230000-
SOUTH CENTRAL NEBRASKA

CITY           SKY/WX    TMP DP  RH WIND       PRES   REMARKS
GRAND ISLAND   MOSUNNY   69  32  25 S17G25    29.92F
AURORA         CLOUDY    70  32  24 S18       29.92F
HASTINGS       MOSUNNY   70  29  21 S20G26    29.92F
HEBRON         PTSUNNY   73  28  18 S17       29.95F
HOLDREGE       CLOUDY    74  32  21 SE23G31   29.87F
KEARNEY *      CLOUDY    70  34  26 S23G32    29.89F
YORK           CLOUDY    70  30  23 SE20G25   29.94F
$$

NEZ011>018-030>034-042>045-230000-
NORTHEAST NEBRASKA

CITY           SKY/WX    TMP DP  RH WIND       PRES   REMARKS
NORFOLK        CLOUDY    67  30  25 SE17      29.93F
ALBION         CLOUDY    70  28  20 S23       29.91F
BLAIR          PTSUNNY   66  32  28 SE12      29.99F
COLUMBUS *     PTSUNNY   70  34  26 SE14      29.95F
FREMONT        CLOUDY    67  31  25 SE15      29.98F
TEKAMAH        PTSUNNY   70  30  22 SE15      29.98F
$$

NEZ050>053-065>068-078-088>093-230000-
SOUTHEAST NEBRASKA

CITY           SKY/WX    TMP DP  RH WIND       PRES   REMARKS
LINCOLN        PTSUNNY   73  33  23 SE15G23   29.97F
OMAHA EPPLEY   PTSUNNY   68  32  26 SE12      30.00S
BEATRICE       MOSUNNY   71  29  21 SE14      29.97F
FALLS CITY     SUNNY     69  32  25 SE6       30.00F
NEBRASKA CITY  MOSUNNY   70  31  24 SE7       30.00F
PLATTSMOUTH    MOSUNNY   67  28  22 E9        30.00F
$$

NEZ044-045-051>053-067-230000-
OMAHA AREA

CITY           SKY/WX    TMP DP  RH WIND       PRES   REMARKS
OMAHA EPPLEY   PTSUNNY   68  32  26 SE12      30.00S
BLAIR          PTSUNNY   66  32  28 SE12      29.99F
FREMONT        CLOUDY    67  31  25 SE15      29.98F
MILLARD        PTSUNNY   67  35  31 SE8       29.98F
OFFUTT AFB     MOSUNNY   66  36  32 E10       29.99F
PLATTSMOUTH    MOSUNNY   67  28  22 E9        30.00F
WAHOO          MOCLDY    69  27  21 SE14      29.97F
$$



USA.gov is the U.S. government's official web portal to all federal, state and local government web resources and services.